Posco lideró en la clasificación

Posco lideró en la clasificación

Con el Fiesta Kinetic, Nicolás Posco consiguió el primer lugar y espera el lanzamiento de las series.

Esto no decía luego de clasificar:

 
GENERAL CLASIFICACIÓN C2
Puesto Nro Piloto Marca Vtas Tiempo Dif.
1 1 Nicolas POSCO FIESTA KINETIC   1:37.208  
2 13 Joel BORGOBELLO VW TREND   1:37.242 0.034
3 72 Lucas TEDESCHI TOYOTA ETIOS   1:37.286 0.078
4 6 Miguel CIAURRO VW TREND   1:37.377 0.169
5 14 Ever FRANETOVICH FIAT PALIO   1:37.414 0.206
6 36 Alejo BORGIANI VW TREND   1:37.440 0.232
7 18 Marcos FERNANDEZ NISSAN MARCH   1:37.444 0.236
8 11 Gaston IANSA FIESTA KINETIC   1:37.517 0.309
9 65 Fernando GOMEZ FREDES NISSAN MARCH   1:37.582 0.374
10 5 Gaston GRASSO TOYOTA ETIOS   1:37.739 0.531
11 32 Sergio FERNANDEZ NISSAN MARCH   1:37.746 0.538
12 25 Sebastian PEREZ CHEVROLET ONIX   1:37.752 0.544
13 120 Geronimo NUNEZ NISSAN MARCH   1:37.754 0.546
14 150 Damian MARKEL TOYOTA ETIOS   1:37.784 0.576
15 91 Mauro SALVI TOYOTA ETIOS   1:37.801 0.593
16 100 Ian REUTEMANN FIESTA KINETIC   1:37.808 0.600
17 7 Maximiliano BESTANI NISSAN MARCH   1:37.857 0.649
18 69 Agustin HERRERA RENAULT CLIO   1:37.875 0.667
19 63 Renzo TESTA FIAT PALIO   1:37.876 0.668
20 66 Martin ALESSI RENAULT CLIO   1:37.885 0.677
21 54 Facundo ROTONDO FIESTA KINETIC   1:37.908 0.700
22 73 Lucas BAGNERA RENAULT CLIO   1:37.977 0.769
23 21 Gabriel SCORDIA FIESTA KINETIC   1:37.991 0.783
24 99 Luciano GONZALEZ RENAULT CLIO   1:38.006 0.798
25 31 Facundo LEANEZ TOYOTA ETIOS   1:38.144 0.936
26 112 Damian ROMERO TOYOTA ETIOS   1:38.146 0.938
27 78 Alejandro WEIMANN TOYOTA ETIOS   1:38.148 0.940
28 24 Juan I. CANELA FIESTA KINETIC   1:38.188 0.980
29 47 Ignacio PROCACITTO VW TREND   1:38.232 1.024
30 141 Juan Pablo ROTONDO FIESTA KINETIC   1:38.361 1.153
31 79 Andres CALDERON VW TREND   1:38.454 1.246
32 199 Emiliano GIACOPONI CHEVROLET CORSA   1:38.560 1.352
33 75 Jose Luis ARRATE RENAULT CLIO   1:38.653 1.445
34 35 Diego LEANEZ TOYOTA ETIOS   1:38.803 1.595
35 61 Sergio SPEDALIERI RENAULT CLIO   1:43.272 6.064

Sin Tiempos Autos Nro. 52 y 159.